Date,TemperatureHighF,TemperatureAvgF,TemperatureLowF,DewpointHighF,DewpointAvgF,DewpointLowF,HumidityHigh,HumidityAvg,HumidityLow,PressureMaxIn,PressureMinIn,WindSpeedMaxMPH,WindSpeedAvgMPH,GustSpeedMaxMPH,PrecipitationSumIn
2013-1-1,48.3,22.9,32.5,40.0,-24.3,-99.9,99,46,67,30.24,30.16,3,-446,5,0.00
2013-1-2,51.1,21.2,31.7,42.0,-30.8,-99.9,100,43,63,30.21,30.11,1,-500,1,0.00
2013-1-3,54.1,24.2,32.4,40.0,-22.8,-99.9,98,46,39,30.24,30.13,1,-433,2,0.00
2013-1-4,54.6,25.1,36.3,42.0,-22.9,-99.9,98,46,54,30.25,30.16,0,-436,2,0.00
2013-1-5,49.5,28.3,44.4,48.0,-11.8,-99.9,98,58,95,30.25,30.06,2,-397,3,0.63
2013-1-6,44.7,14.0,42.0,44.0,-54.3,-99.9,100,31,96,30.16,30.02,0,-681,0,0.01
2013-1-7,52.0,27.1,37.2,48.0,-14.1,-99.9,99,57,84,30.24,30.13,3,-404,3,0.00
2013-1-8,58.8,26.7,38.9,48.0,-23.6,-99.9,97,43,60,30.19,30.10,5,-462,7,0.00
2013-1-9,52.4,29.0,39.7,49.0,-10.5,-99.9,99,56,82,30.11,29.98,4,-376,11,0.00
2013-1-10,45.2,26.8,32.0,38.0,-10.8,-99.9,95,54,64,30.18,30.05,8,-339,13,0.00
2013-1-11,47.7,27.6,29.3,39.0,-6.0,-99.9,98,59,67,30.24,30.12,3,-308,8,0.00
2013-1-12,44.6,21.9,33.6,37.0,-28.7,-99.9,96,40,57,30.22,30.12,1,-464,3,0.00
2013-1-13,43.9,39.7,33.8,32.0,27.8,23.0,83,64,43,30.16,30.15,2,1,7,0.00
2013-1-17,61.1,46.7,35.7,43.0,36.1,-99.9,92,73,44,30.15,30.11,0,-23,1,0.00
2013-1-18,62.3,28.8,36.7,43.0,-19.4,-99.9,94,41,32,30.18,30.10,1,-416,2,0.00
2013-1-19,62.4,28.5,35.6,44.0,-18.0,-99.9,93,43,41,30.19,30.12,0,-410,1,0.00
2013-1-20,61.7,29.3,36.5,44.0,-18.1,-99.9,92,41,38,30.19,30.07,0,-410,0,0.00
2013-1-21,63.1,29.7,37.5,44.0,-18.0,-99.9,89,40,35,30.14,30.05,0,-408,0,0.00
2013-1-22,61.1,30.2,36.7,42.0,-16.7,-99.9,91,40,38,30.09,30.00,0,-400,0,0.00
2013-1-23,52.2,27.2,43.0,49.0,-18.9,-99.9,95,49,79,30.06,29.95,0,-442,0,0.00
2013-1-24,52.4,17.3,48.7,52.0,-49.0,-99.9,98,33,98,30.16,30.02,0,-662,0,0.53
2013-1-25,58.4,31.3,48.8,58.0,-11.7,-99.9,99,56,93,30.15,30.01,1,-427,2,0.00
2013-1-26,51.7,28.4,39.9,50.0,-13.7,-99.9,99,51,70,30.07,29.97,4,-393,10,0.00
2013-1-27,49.2,41.7,36.2,40.0,37.4,33.0,97,86,54,30.15,30.06,3,0,6,0.00
2013-1-28,51.5,41.4,32.9,43.0,37.6,32.0,98,87,62,30.28,30.15,7,0,9,0.00
2013-1-29,53.0,41.6,33.3,44.0,38.3,32.0,98,89,70,30.34,30.24,3,0,5,0.00
2013-1-30,56.9,46.6,38.6,47.0,42.7,37.0,96,87,65,30.33,30.25,4,0,4,0.00
2013-1-31,60.8,45.2,35.5,49.0,41.6,35.0,98,88,61,30.26,30.16,1,0,1,0.00
2013-2-1,63.3,46.6,37.1,51.0,42.4,36.0,98,87,50,30.22,30.10,2,0,5,0.00
2013-2-2,59.5,47.0,39.4,54.0,44.7,38.0,97,92,77,30.26,30.19,1,0,2,0.00
2013-2-3,52.9,44.3,37.8,48.0,42.2,37.0,98,93,79,30.23,30.11,2,0,2,0.00
2013-2-4,58.8,44.3,34.5,52.0,41.6,34.0,98,90,69,30.16,30.04,1,0,2,0.00
2013-2-5,52.0,43.6,37.3,46.0,41.0,36.0,97,90,76,30.14,30.05,3,0,5,0.00
2013-2-6,53.7,42.4,32.3,47.0,39.8,31.0,98,91,73,30.18,30.11,1,0,2,0.00
2013-2-7,48.9,38.9,31.6,45.0,36.7,31.0,98,92,68,30.18,30.01,5,0,9,0.04
2013-2-8,46.3,39.0,31.7,41.0,36.7,31.0,98,91,72,30.00,29.93,4,0,10,0.04
2013-2-9,50.4,37.4,29.3,41.0,33.0,26.0,98,86,40,30.11,29.98,3,0,4,0.00
2013-2-10,54.1,39.3,29.3,39.0,32.6,28.0,97,80,42,30.11,30.01,4,0,8,0.00
2013-2-11,55.3,41.4,31.6,36.0,31.2,25.0,97,72,31,30.24,30.06,5,0,8,0.00
2013-2-12,55.2,41.3,31.5,42.0,35.9,30.0,97,83,57,30.34,30.24,2,0,4,0.00
2013-2-13,59.5,43.8,33.2,43.0,36.9,32.0,98,80,43,30.33,30.21,5,0,8,0.00
2013-2-14,63.3,47.9,35.2,45.0,39.3,34.0,97,75,44,30.22,30.13,3,1,8,0.00
2013-2-15,68.3,49.6,37.8,47.0,40.9,36.0,95,76,34,30.23,30.18,2,0,2,0.00
2013-2-16,67.9,50.6,40.0,50.0,42.2,38.0,94,77,33,30.21,30.03,1,0,3,0.00
2013-2-17,56.8,44.7,35.5,48.0,41.6,34.0,97,89,70,30.04,29.95,2,0,3,0.00
2013-2-18,48.4,42.2,35.4,44.0,39.1,34.0,97,89,73,30.04,29.98,3,0,6,0.00
2013-2-19,44.1,39.1,31.9,43.0,37.9,31.0,97,95,92,29.98,29.75,4,0,11,0.18
2013-2-20,52.6,39.7,30.3,40.0,34.5,30.0,98,84,50,30.07,29.82,5,0,10,0.00
2013-2-21,53.0,41.0,31.2,38.0,33.9,30.0,97,78,45,30.18,30.05,8,1,12,0.00
2013-2-22,59.0,43.2,30.6,41.0,35.1,29.0,97,77,39,30.25,30.17,3,0,8,0.00
2013-2-23,53.5,44.3,34.9,41.0,37.5,32.0,95,79,45,30.24,30.13,4,1,12,0.00
2013-2-24,55.5,43.6,33.4,36.0,29.6,23.0,94,63,29,30.25,30.15,6,1,11,0.00
2013-2-25,59.3,43.4,30.6,43.0,36.4,29.0,94,78,51,30.27,30.16,3,0,7,0.00
2013-2-26,60.3,46.6,34.0,37.0,31.0,22.0,96,61,24,30.20,30.11,9,1,9,0.00
2013-2-27,64.2,47.2,33.7,41.0,35.2,31.0,90,68,30,30.36,30.20,2,0,3,0.00
2013-2-28,65.6,50.6,39.0,51.0,44.4,37.0,96,81,56,30.43,30.35,4,0,7,0.00
2013-3-1,69.7,53.8,42.1,55.0,47.4,41.0,98,81,51,30.41,30.21,2,0,3,0.00
2013-3-2,68.3,54.3,45.6,54.0,47.4,44.0,95,80,46,30.22,30.05,2,0,3,0.00
2013-3-3,60.9,52.0,45.1,51.0,46.9,43.0,94,83,55,30.09,30.01,3,0,6,0.00
2013-3-4,58.5,48.6,43.3,49.0,44.5,42.0,94,86,68,30.12,30.03,2,0,3,0.00
2013-3-5,50.1,45.4,41.8,44.0,41.8,40.0,96,87,73,30.06,29.91,4,0,5,0.24
2013-3-6,50.5,45.1,37.0,47.0,43.3,36.0,98,93,79,30.07,29.89,3,0,5,0.52
2013-3-7,53.9,43.2,34.9,45.0,39.6,34.0,98,88,58,29.99,29.84,3,0,5,0.39
2013-3-8,52.6,45.3,40.3,47.0,41.5,39.0,98,87,68,30.07,29.81,6,1,11,0.08
2013-3-9,60.3,48.6,39.6,43.0,40.1,36.0,93,75,41,30.29,30.07,7,1,11,0.00
2013-3-10,63.7,46.9,35.5,45.0,38.5,27.0,97,77,25,30.32,30.24,2,0,6,0.00
2013-3-11,69.4,50.8,36.0,48.0,39.6,35.0,95,72,30,30.25,30.09,3,0,9,0.00
2013-3-12,72.8,53.1,39.1,52.0,45.6,38.0,96,78,45,30.12,30.03,2,0,3,0.00
2013-3-13,77.6,56.9,44.0,56.0,47.9,41.0,97,77,30,30.12,30.04,1,0,4,0.00
2013-3-14,73.9,55.9,45.0,58.0,47.4,37.0,97,76,40,30.12,30.06,2,0,7,0.00
2013-3-15,70.1,54.0,40.6,53.0,45.0,36.0,89,73,49,30.10,30.02,2,0,4,0.00
2013-3-16,71.3,52.8,40.1,55.0,43.9,39.0,97,75,36,30.08,30.00,3,0,6,0.00
2013-3-17,65.7,51.9,40.5,47.0,41.8,32.0,93,72,29,30.11,30.01,3,0,8,0.00
2013-3-18,64.3,50.4,37.3,54.0,44.4,36.0,95,81,56,30.10,30.01,1,0,2,0.00
2013-3-19,70.3,52.9,41.2,50.0,44.6,39.0,96,77,37,30.13,30.04,2,0,5,0.02
2013-3-20,60.3,53.9,49.5,54.0,51.2,47.0,97,90,71,30.10,30.05,3,0,5,0.00
2013-3-21,59.5,50.6,39.5,50.0,42.2,38.0,93,75,48,30.10,29.98,6,1,12,0.00
2013-3-22,62.5,49.4,38.7,39.0,31.6,18.0,95,60,18,30.07,30.00,8,1,12,0.00
2013-3-23,64.5,51.1,38.1,42.0,31.5,14.0,82,54,14,30.10,30.01,4,1,9,0.00
2013-3-24,70.5,50.6,36.6,48.0,40.2,34.0,91,71,36,30.07,29.95,1,0,3,0.00
2013-3-25,65.2,50.9,39.5,49.0,43.0,38.0,95,77,46,29.99,29.92,2,0,4,0.00
2013-3-26,65.8,51.6,41.0,50.0,44.8,39.0,93,79,56,29.98,29.90,2,0,4,0.00
2013-3-27,62.4,52.2,44.0,53.0,48.6,42.0,95,88,68,30.01,29.93,3,0,6,0.00
2013-3-28,61.8,54.3,47.8,57.0,52.1,47.0,97,92,77,30.06,29.99,2,0,3,0.00
2013-3-29,72.3,54.5,43.2,58.0,49.0,42.0,98,84,51,30.06,30.01,3,0,6,0.00
2013-3-30,61.8,53.3,47.9,53.0,50.3,47.0,97,90,66,30.07,29.98,2,0,5,0.00
2013-3-31,59.4,53.8,49.7,56.0,51.9,49.0,98,93,79,30.05,29.99,3,0,7,0.00
2013-4-1,58.1,52.4,46.2,55.0,50.7,45.0,98,94,77,30.14,30.03,2,0,3,0.00
2013-4-2,66.9,52.4,41.5,56.0,48.3,41.0,98,87,62,30.16,30.06,1,0,3,0.00
2013-4-3,73.0,53.7,43.5,56.0,48.5,43.0,98,84,47,30.11,29.98,3,0,4,0.00
2013-4-4,55.5,51.4,47.5,55.0,50.6,46.0,98,97,93,30.11,30.00,3,0,4,0.00
2013-4-5,63.1,54.6,47.2,57.0,51.1,46.0,98,88,62,30.16,30.09,3,0,6,0.00
2013-4-6,63.7,53.2,43.7,55.0,49.4,43.0,98,88,66,30.19,30.11,4,0,8,0.00
2013-4-7,64.5,52.9,43.9,57.0,48.4,43.0,98,85,57,30.15,29.87,2,0,8,0.00
2013-4-8,60.5,50.0,41.4,48.0,39.0,30.0,96,70,32,30.00,29.79,7,2,17,0.00
2013-4-9,68.4,58.1,41.0,44.0,36.3,30.0,92,48,25,30.06,29.99,8,2,14,0.00
2013-4-10,81.4,68.0,53.4,50.0,43.1,36.0,79,42,28,30.13,30.01,7,2,18,0.00
2013-4-11,69.5,55.3,46.5,49.0,45.6,39.0,90,73,34,30.04,29.83,6,0,9,0.00
2013-4-12,72.9,53.3,39.0,54.0,46.1,38.0,97,79,49,29.90,29.82,1,0,3,0.00
2013-4-13,67.3,50.7,42.1,53.0,43.7,39.0,95,79,48,29.90,29.83,4,0,11,0.00
2013-4-14,70.7,50.4,36.9,46.0,40.2,35.0,95,72,36,29.91,29.85,6,1,10,0.01
2013-4-15,53.2,46.8,39.5,47.0,38.8,34.0,94,75,54,29.94,29.85,8,2,21,0.00
2013-4-16,60.7,47.1,34.7,37.0,33.2,27.0,94,63,28,30.12,29.95,9,2,15,0.00
2013-4-17,63.3,53.2,40.4,37.0,30.9,24.0,81,47,23,30.23,30.12,10,2,13,0.00
2013-4-18,70.6,53.6,36.6,42.0,34.3,25.0,87,55,19,30.25,30.16,5,1,11,0.00
2013-4-19,79.5,58.0,40.9,51.0,43.9,37.0,88,64,32,30.22,30.05,2,0,5,0.00
2013-4-20,77.2,62.0,47.2,46.0,42.4,32.0,88,54,19,30.07,29.94,5,1,9,0.00
2013-4-21,83.0,63.3,44.9,48.0,40.9,33.0,89,53,17,30.00,29.91,5,1,11,0.00
2013-4-22,83.3,61.0,48.2,54.0,47.5,40.0,90,65,24,29.94,29.84,3,0,6,0.00
2013-4-23,74.2,54.8,44.2,53.0,48.0,42.0,93,80,47,29.93,29.83,3,0,5,0.00
2013-4-24,58.7,49.2,40.1,50.0,46.1,39.0,96,89,74,29.96,29.81,2,0,6,0.00
2013-4-25,70.3,54.3,43.4,52.0,47.0,42.0,96,78,51,30.11,29.97,4,0,7,0.00
2013-4-26,73.2,55.4,40.3,56.0,48.3,39.0,96,79,53,30.19,30.10,2,0,5,0.00
2013-4-27,82.2,59.4,42.2,59.0,49.7,41.0,96,74,40,30.19,30.05,1,0,3,0.00
2013-4-28,81.4,60.2,42.2,58.0,50.4,40.0,95,74,41,30.05,29.87,3,0,5,0.00
2013-4-29,87.6,68.2,50.2,52.0,47.4,41.0,93,56,20,29.88,29.73,6,1,10,0.00
2013-4-30,78.5,62.6,48.0,54.0,44.6,35.0,91,59,22,29.82,29.74,6,1,13,0.00
2013-5-1,77.6,58.3,44.9,53.0,47.1,38.0,92,69,40,30.07,29.82,2,0,4,0.00
2013-5-2,91.1,66.3,48.6,54.0,46.5,39.0,89,57,17,30.11,30.06,3,0,6,0.00
2013-5-3,89.3,66.1,46.8,50.0,41.8,32.0,77,50,13,30.07,29.78,1,0,7,0.00
2013-5-4,78.3,57.4,48.0,52.0,46.2,40.0,86,68,29,29.78,29.62,3,0,6,0.00
2013-5-5,60.7,55.2,50.8,51.0,48.7,47.0,88,79,62,29.79,29.62,4,1,6,0.00
2013-5-6,62.3,55.8,49.5,53.0,50.3,47.0,93,82,63,29.95,29.80,4,0,6,0.00
2013-5-7,70.7,58.3,49.2,52.0,48.8,45.0,92,73,44,30.03,29.94,3,0,7,0.00
2013-5-8,72.6,56.2,43.6,53.0,47.1,42.0,94,74,44,30.11,30.02,2,0,5,0.00
2013-5-9,74.0,57.6,46.7,55.0,49.8,44.0,93,77,50,30.15,30.05,2,0,4,0.00
2013-5-10,85.0,60.7,45.6,59.0,51.6,44.0,95,75,40,30.16,30.06,2,0,3,0.00
2013-5-11,90.7,66.3,48.5,60.0,52.6,47.0,94,68,28,30.12,30.01,2,0,4,0.00
2013-5-12,94.1,68.0,49.9,62.0,54.5,48.0,92,66,32,30.09,29.98,3,0,6,0.00
2013-5-13,89.4,65.0,47.7,59.0,50.9,44.0,87,64,34,30.05,29.93,3,0,7,0.00
2013-5-14,74.8,58.9,49.3,56.0,50.2,44.0,92,75,49,30.02,29.92,3,0,5,0.00
2013-5-15,69.7,54.0,41.5,47.0,43.2,38.0,93,71,32,30.05,30.01,7,0,11,0.00
2013-5-16,71.9,56.3,45.6,55.0,47.6,43.0,95,75,44,30.03,29.95,5,1,10,0.00
2013-5-17,73.5,55.3,42.4,48.0,43.4,36.0,93,68,26,30.07,29.97,4,1,13,0.00
2013-5-18,79.9,56.5,39.1,52.0,45.0,37.0,92,69,37,30.12,30.07,2,0,7,0.00
2013-5-19,81.7,62.3,43.3,49.0,43.5,33.0,93,58,18,30.10,29.94,6,1,12,0.00
2013-5-20,88.3,65.7,46.5,48.0,38.4,27.0,83,46,12,29.97,29.90,5,1,10,0.00
2013-5-21,69.5,55.6,46.3,50.0,42.0,37.0,78,62,30,29.96,29.89,7,1,15,0.00
2013-5-22,66.1,50.9,40.5,41.0,34.1,20.0,86,58,19,29.98,29.92,5,2,15,0.00
2013-5-23,71.6,52.3,41.9,44.0,40.3,38.0,89,66,35,30.00,29.92,6,1,13,0.00
2013-5-24,78.3,52.8,36.7,45.0,39.6,34.0,92,66,25,30.00,29.94,8,1,9,0.00
2013-5-25,70.7,52.3,38.8,45.0,40.7,36.0,91,69,32,30.06,29.98,5,1,12,0.00
2013-5-26,69.7,55.6,43.7,53.0,47.3,41.0,92,75,47,30.12,30.05,3,1,12,0.00
2013-5-27,62.1,55.0,45.1,55.0,50.2,43.0,93,84,73,30.12,30.01,5,0,8,0.00
2013-5-28,75.1,61.0,51.7,58.0,53.3,47.0,95,77,50,30.00,29.88,3,0,9,0.00
2013-5-29,75.1,58.6,47.9,56.0,49.4,44.0,91,74,47,29.94,29.88,6,1,11,0.00
2013-5-30,81.8,58.3,40.3,51.0,44.0,38.0,93,65,25,29.97,29.91,5,0,6,0.00
2013-5-31,86.6,64.9,42.7,51.0,43.0,34.0,90,54,16,29.98,29.88,8,1,11,0.00
2013-6-1,97.1,70.8,49.6,57.0,48.5,40.0,81,52,18,29.91,29.73,4,0,7,0.00
2013-6-2,75.4,60.6,50.6,56.0,51.4,48.0,91,73,49,29.75,29.68,4,0,5,0.00
2013-6-3,68.7,55.6,49.8,53.0,49.7,47.0,95,82,58,29.86,29.73,5,0,8,0.00
2013-6-4,72.0,55.2,45.6,55.0,49.8,44.0,94,83,56,29.97,29.85,2,0,6,0.00
2013-6-5,73.8,56.8,45.9,56.0,49.9,44.0,95,79,53,29.98,29.91,3,0,6,0.00
2013-6-6,77.0,58.9,49.3,57.0,51.4,47.0,96,78,49,29.95,29.86,3,0,6,0.00
2013-6-7,91.3,63.4,48.0,63.0,53.7,46.0,95,75,36,29.89,29.73,4,0,4,0.00
2013-6-8,77.0,60.8,49.5,58.0,53.7,48.0,93,79,51,29.84,29.72,4,0,7,0.00
2013-6-9,60.7,56.4,53.6,56.0,53.7,52.0,96,90,83,29.88,29.81,2,0,6,0.00
2013-6-10,65.4,58.3,53.8,54.0,52.1,50.0,89,80,66,29.94,29.85,4,1,7,0.00
2013-6-11,80.8,61.8,52.1,59.0,53.5,50.0,91,76,44,29.95,29.86,2,0,4,0.00
2013-6-12,84.6,61.5,47.0,57.0,46.5,27.0,94,64,13,30.00,29.89,8,0,12,0.00
2013-6-13,84.3,59.6,40.5,53.0,43.6,37.0,90,61,19,30.06,29.97,8,0,10,0.00
2013-6-14,87.6,66.0,47.1,48.0,41.3,33.0,85,49,18,29.97,29.80,8,1,9,0.00
2013-6-15,73.7,57.3,45.6,54.0,48.8,42.0,92,75,49,29.99,29.81,3,0,5,0.00
2013-6-16,87.9,62.3,43.5,56.0,49.0,41.0,93,67,29,30.06,29.99,5,1,9,0.00
2013-6-17,78.9,61.2,46.3,57.0,50.2,44.0,90,70,42,30.06,30.00,5,1,11,0.00
2013-6-18,69.4,56.9,47.0,51.0,47.2,44.0,93,72,42,30.02,29.98,8,1,12,0.00
2013-6-19,75.5,58.2,43.5,50.0,45.5,41.0,90,66,36,30.03,29.98,5,1,9,0.00
2013-6-20,83.0,59.5,42.2,53.0,44.7,36.0,91,63,26,29.99,29.91,4,0,10,0.00
2013-6-21,86.8,61.3,43.2,54.0,44.6,29.0,90,61,16,29.96,29.89,5,0,7,0.00
2013-6-22,91.4,64.7,45.8,56.0,47.7,37.0,89,60,24,29.91,29.83,5,1,14,0.00
2013-6-23,66.5,59.8,51.1,59.0,54.6,48.0,91,83,73,29.87,29.80,2,0,6,0.00
2013-6-24,60.6,59.1,57.8,59.0,57.5,57.0,97,94,91,29.91,29.78,1,0,2,0.00
2013-6-25,66.2,60.4,56.3,65.0,59.6,56.0,98,96,94,29.98,29.90,0,0,1,0.00
2013-6-26,89.6,70.6,58.6,68.0,62.4,58.0,98,78,44,30.01,29.93,3,0,6,0.00
2013-6-27,95.2,72.5,56.1,64.0,59.1,54.0,94,68,34,30.02,29.96,4,0,6,0.00
2013-6-28,102.2,77.0,57.9,65.0,57.4,52.0,83,56,24,29.99,29.86,3,0,6,0.00
2013-6-29,105.0,78.8,59.5,60.0,53.9,43.0,75,48,17,29.89,29.77,3,0,10,0.00
2013-6-30,99.8,76.1,57.3,61.0,53.9,44.0,78,52,16,29.81,29.72,4,0,9,0.00
2013-7-1,89.2,72.5,58.1,61.0,56.4,52.0,79,60,33,29.85,29.76,4,0,5,0.00
2013-7-2,89.5,72.5,60.4,61.0,57.5,55.0,83,62,34,29.90,29.81,4,0,8,0.00
2013-7-3,93.4,72.7,58.2,64.0,58.7,55.0,88,65,34,29.88,29.75,2,0,5,0.00
2013-7-4,92.5,71.0,59.3,63.0,58.6,55.0,86,67,37,29.75,29.69,3,0,5,0.00
2013-7-5,77.6,62.4,51.9,58.0,53.6,50.0,93,75,48,29.79,29.72,3,0,6,0.00
2013-7-6,75.3,58.0,52.1,56.0,51.9,50.0,93,82,50,29.80,29.75,3,0,4,0.00
2013-7-7,79.3,59.6,50.9,56.0,51.9,49.0,94,78,43,29.86,29.78,4,0,5,0.00
2013-7-8,83.7,61.8,50.9,56.0,50.2,39.0,94,72,21,29.95,29.86,2,0,5,0.00
2013-7-9,99.0,68.2,49.4,61.0,52.9,47.0,92,65,24,29.98,29.89,3,0,5,0.00
2013-7-10,83.8,62.5,50.2,58.0,53.3,48.0,93,75,40,29.96,29.87,3,0,5,0.00
2013-7-11,77.1,59.4,50.8,56.0,52.2,49.0,95,79,47,29.92,29.87,3,0,5,0.00
2013-7-12,82.8,60.5,49.5,58.0,51.8,48.0,96,77,41,29.93,29.86,5,0,5,0.00
2013-7-13,87.5,62.1,46.1,59.0,51.5,44.0,94,73,33,29.94,29.88,3,0,5,0.00
2013-7-14,83.8,61.8,46.1,59.0,51.8,44.0,94,74,38,29.97,29.87,4,0,5,0.00
2013-7-15,75.0,58.2,51.0,55.0,52.2,50.0,95,82,49,29.91,29.82,4,0,5,0.00
2013-7-16,76.6,59.7,52.5,56.0,53.0,50.0,95,80,48,30.00,29.86,4,0,6,0.00
2013-7-17,84.3,62.9,46.3,59.0,53.1,44.0,95,74,41,30.06,29.99,3,0,5,0.00
2013-7-18,87.7,64.3,47.4,60.0,53.4,46.0,95,72,35,30.03,29.90,2,0,4,0.00
2013-7-19,86.3,62.5,46.5,60.0,52.9,45.0,95,75,40,29.93,29.81,2,0,5,0.00
2013-7-20,77.5,59.2,49.7,59.0,52.4,48.0,95,80,50,29.84,29.76,3,0,5,0.00
2013-7-21,85.0,63.3,47.3,58.0,53.3,46.0,94,73,39,29.88,29.76,4,0,7,0.00
2013-7-22,73.3,64.3,56.3,61.0,56.2,53.0,93,76,53,29.93,29.86,3,0,4,0.00
2013-7-23,83.0,67.1,59.0,60.0,56.1,53.0,84,69,43,29.97,29.92,2,0,5,0.00
2013-7-24,88.8,67.6,54.9,61.0,56.5,52.0,92,71,38,29.94,29.86,3,0,6,0.00
2013-7-25,84.5,64.3,51.4,61.0,54.5,49.0,93,74,42,30.00,29.90,2,0,5,0.00
2013-7-26,82.9,62.7,49.7,60.0,54.0,48.0,94,76,45,30.07,29.99,3,0,5,0.00
2013-7-27,80.8,61.5,51.1,60.0,53.8,49.0,96,78,46,30.01,29.85,3,0,5,0.00
2013-7-28,72.3,58.7,51.6,57.0,53.0,50.0,96,83,57,29.88,29.82,2,0,5,0.00
2013-7-29,72.3,58.2,53.3,56.0,52.2,50.0,91,81,56,30.02,29.86,3,0,6,0.00
2013-7-30,76.3,60.1,51.6,56.0,52.1,49.0,93,77,48,30.08,30.01,3,0,5,0.00
2013-7-31,78.0,61.4,51.7,57.0,53.2,49.0,95,77,49,30.07,29.98,2,0,5,0.00
2013-8-1,85.0,61.8,44.8,56.0,48.8,43.0,93,67,30,30.05,29.94,2,0,5,0.00
2013-8-2,82.0,60.0,45.0,57.0,50.8,43.0,92,74,42,29.96,29.89,4,0,5,0.00
2013-8-3,73.6,57.7,51.0,57.0,52.4,49.0,96,84,55,29.97,29.91,2,0,5,0.00
2013-8-4,74.2,59.0,51.0,58.0,52.7,49.0,95,81,54,29.99,29.93,3,0,5,0.00
2013-8-5,79.7,59.7,48.2,58.0,51.7,47.0,96,78,45,30.00,29.91,3,0,5,0.00
2013-8-6,73.0,58.3,50.4,57.0,52.7,49.0,96,83,57,30.04,29.95,3,0,5,0.00
2013-8-7,74.1,61.1,54.0,56.0,53.7,51.0,95,78,52,30.08,30.00,5,0,7,0.00
2013-8-8,73.2,59.2,51.5,58.0,53.3,49.0,96,82,55,30.02,29.91,3,0,5,0.00
2013-8-9,74.2,61.2,52.4,58.0,53.8,50.0,92,78,55,29.97,29.90,3,0,5,0.00
2013-8-10,81.0,63.8,53.7,61.0,55.9,52.0,96,78,50,30.00,29.95,2,0,5,0.00
2013-8-11,82.1,62.0,48.6,61.0,54.2,47.0,94,78,48,29.99,29.90,1,0,4,0.00
2013-8-12,82.9,63.0,49.1,59.0,53.8,47.0,95,75,44,29.96,29.91,2,0,4,0.00
2013-8-13,89.5,65.8,49.0,60.0,52.0,47.0,93,67,31,29.96,29.87,2,0,4,0.00
2013-8-14,88.3,66.0,48.6,59.0,51.4,41.0,88,65,21,29.94,29.87,4,0,7,0.00
2013-8-15,89.5,61.6,51.6,66.0,36.8,-99.9,92,59,38,29.92,29.85,3,-141,5,0.00
2013-8-16,89.9,64.3,57.0,66.0,40.2,-99.9,94,58,41,29.93,29.87,5,-125,5,0.00
2013-8-17,82.4,59.4,55.6,60.0,36.6,-99.9,87,60,42,29.95,29.84,4,-124,8,0.00
2013-8-18,92.0,60.6,51.5,62.0,34.0,-99.9,94,56,29,29.87,29.75,3,-147,5,0.00
2013-8-19,90.9,58.2,56.9,61.0,33.4,-99.9,88,59,35,29.88,29.78,3,-147,6,0.00
2013-8-20,78.2,54.3,54.4,58.0,33.8,-99.9,94,66,46,29.88,29.82,6,-135,6,0.00
2013-8-21,78.7,52.8,53.1,56.0,29.4,-99.9,94,63,46,29.91,29.83,3,-156,5,0.00
2013-8-22,75.6,54.3,50.4,57.0,32.6,-99.9,94,64,53,29.95,29.84,2,-136,5,0.00
2013-8-23,81.8,62.9,48.9,59.0,53.7,47.0,95,75,46,29.90,29.78,3,0,5,0.00
2013-8-24,81.5,64.6,49.4,60.0,54.7,47.0,93,73,45,29.87,29.81,4,0,7,0.00
2013-8-25,81.0,65.0,54.2,61.0,56.7,52.0,94,77,47,29.92,29.86,5,0,7,0.00
2013-8-26,81.6,65.8,56.0,61.0,56.2,50.0,94,74,49,29.96,29.85,2,0,5,0.00
2013-8-27,85.2,65.3,49.9,59.0,52.8,47.0,90,68,36,29.88,29.77,3,0,7,0.00
2013-8-28,86.6,66.6,51.2,61.0,55.2,49.0,93,71,40,29.91,29.82,3,0,6,0.00
2013-8-29,86.0,67.1,52.6,64.0,58.0,51.0,95,75,46,30.00,29.91,2,0,6,0.00
2013-8-30,90.6,71.0,55.2,63.0,57.3,53.0,93,67,28,30.00,29.87,3,0,6,0.00
2013-8-31,89.2,70.4,55.0,58.0,53.1,46.0,86,59,27,29.93,29.84,3,0,5,0.00
2013-9-1,85.0,71.0,60.1,62.0,57.5,54.0,83,64,43,29.89,29.82,3,0,6,0.00
2013-9-2,81.7,69.7,62.8,63.0,60.1,57.0,85,73,50,29.91,29.83,3,0,6,0.00
2013-9-3,80.8,66.6,54.4,59.0,54.2,51.0,93,68,37,29.95,29.88,4,0,8,0.00
2013-9-4,79.3,63.9,51.0,57.0,53.4,49.0,93,72,41,30.00,29.90,3,0,9,0.00
2013-9-5,79.5,62.8,50.3,58.0,52.6,48.0,93,72,43,29.99,29.92,7,1,9,0.00
2013-9-6,87.9,67.2,47.6,55.0,50.4,45.0,93,62,29,29.97,29.79,4,0,5,0.00
2013-9-7,92.2,68.1,54.7,57.0,51.4,47.0,76,58,26,29.84,29.79,3,0,5,0.00
2013-9-8,84.3,65.1,51.2,60.0,54.1,48.0,89,70,43,29.84,29.73,1,0,2,0.00
2013-9-9,89.5,66.4,53.2,61.0,55.0,50.0,90,70,37,29.78,29.69,0,0,0,0.00
2013-9-10,62.0,57.1,51.3,57.0,54.2,50.0,95,90,84,29.90,29.73,0,0,0,0.00
2013-9-11,70.0,61.2,55.1,58.0,55.8,53.0,91,83,67,29.98,29.90,0,0,0,0.00
2013-9-12,77.7,64.4,55.5,62.0,57.5,53.0,93,80,58,29.95,29.85,0,0,0,0.00
2013-9-13,79.8,64.7,51.4,61.0,56.5,50.0,95,77,52,29.88,29.73,0,0,0,0.00
2013-9-14,80.0,62.8,48.9,59.0,53.8,47.0,94,75,49,29.79,29.69,0,0,0,0.00
2013-9-15,78.5,61.8,46.7,59.0,53.0,45.0,96,76,48,29.83,29.76,3,0,6,0.00
2013-9-16,80.4,63.1,50.8,61.0,54.1,49.0,96,75,44,29.86,29.76,4,0,10,0.00
2013-9-17,72.2,58.9,49.7,54.0,51.0,48.0,92,77,47,29.86,29.83,5,1,12,0.00
2013-9-18,78.6,61.8,48.0,51.0,46.3,39.0,93,63,25,29.88,29.79,6,1,11,0.00
2013-9-19,86.5,63.7,45.8,52.0,44.3,39.0,84,56,21,29.83,29.71,2,0,4,0.00
2013-9-20,72.6,60.0,47.3,59.0,51.4,41.0,89,74,53,29.85,29.75,4,0,9,0.00
2013-9-21,60.8,57.5,49.9,59.0,56.4,49.0,97,95,89,29.89,29.80,2,0,4,0.20
2013-9-22,68.3,55.2,44.9,59.0,50.4,44.0,98,86,55,29.99,29.89,4,0,7,0.00
2013-9-23,76.8,61.7,49.0,58.0,52.0,48.0,96,75,41,29.99,29.90,3,0,10,0.00
2013-9-24,72.3,61.5,50.4,57.0,51.1,47.0,96,71,44,29.96,29.89,4,1,12,0.00
2013-9-25,64.6,54.3,45.3,48.0,45.5,43.0,93,74,47,29.92,29.81,7,1,14,0.00
2013-9-26,69.0,53.7,42.2,44.0,39.6,33.0,95,65,28,29.97,29.81,6,1,16,0.00
2013-9-27,72.4,56.3,43.1,43.0,37.5,25.0,85,56,18,30.08,29.97,4,1,12,0.00
2013-9-28,78.9,58.6,43.3,47.0,40.8,37.0,81,57,24,30.06,29.96,2,0,5,0.00
2013-9-29,77.6,60.9,47.8,57.0,50.4,44.0,91,71,42,30.08,30.00,2,0,5,0.00
2013-9-30,73.6,61.5,50.0,60.0,54.8,48.0,94,80,55,30.06,29.93,5,0,8,0.00
2013-10-1,69.0,57.4,45.3,56.0,49.2,43.0,93,76,47,29.99,29.89,2,0,4,0.00
2013-10-2,74.8,56.3,44.4,53.0,46.5,42.0,94,73,44,29.98,29.91,2,0,5,0.00
2013-10-3,67.2,56.5,43.0,42.0,36.9,31.0,88,53,26,30.03,29.92,6,1,19,0.00
2013-10-4,74.5,63.6,52.9,39.0,32.1,28.0,52,32,20,30.07,29.92,6,1,11,0.00
2013-10-5,82.8,61.5,45.3,40.0,33.6,22.0,67,41,12,30.15,30.06,4,0,5,0.00
2013-10-6,82.7,60.8,45.7,42.0,33.3,21.0,65,42,11,30.09,29.98,2,0,5,0.00
2013-10-7,78.9,59.9,46.2,41.0,36.5,34.0,66,45,22,29.98,29.85,2,0,4,0.00
2013-10-8,67.4,52.7,41.6,51.0,42.9,34.0,92,71,51,29.89,29.72,1,0,4,0.00
2013-10-9,61.5,52.5,44.7,49.0,46.0,41.0,92,79,60,29.75,29.61,3,0,6,0.00
2013-10-10,61.1,48.4,39.7,50.0,44.3,38.0,92,86,65,30.01,29.76,2,0,3,0.00
2013-10-11,65.6,51.9,43.3,52.0,46.5,41.0,96,83,53,30.07,29.96,2,0,3,0.00
2013-10-12,68.4,51.6,39.8,51.0,43.3,35.0,96,76,40,29.99,29.90,2,0,4,0.00
2013-10-13,66.9,51.9,40.1,50.0,42.3,38.0,95,73,39,30.05,29.92,6,0,10,0.00
2013-10-14,73.5,56.6,41.7,44.0,39.7,36.0,86,58,26,30.08,29.97,3,0,7,0.00
2013-10-15,73.4,59.4,46.9,40.0,37.0,34.0,69,47,24,30.01,29.91,3,0,6,0.00
2013-10-16,77.9,57.6,44.3,43.0,36.3,30.0,72,49,19,30.05,29.98,3,0,6,0.00
2013-10-17,78.3,58.0,44.1,42.0,35.6,33.0,73,48,20,30.05,29.94,3,0,4,0.00
2013-10-18,78.1,57.4,42.8,42.0,36.7,32.0,72,50,20,30.02,29.95,2,0,4,0.00
2013-10-19,79.1,58.1,44.0,45.0,39.5,32.0,79,56,18,30.04,29.97,1,0,4,0.00
2013-10-20,75.5,56.2,44.0,48.0,43.0,39.0,83,65,32,30.00,29.88,1,0,2,0.00
2013-10-21,73.1,53.7,41.3,51.0,42.7,36.0,85,69,35,29.97,29.89,0,0,1,0.00
2013-10-22,71.7,52.8,41.0,52.0,45.2,39.0,92,78,45,29.98,29.91,0,0,1,0.00
2013-10-23,69.4,51.3,41.8,54.0,46.2,40.0,94,84,58,29.96,29.88,0,0,0,0.00
2013-10-24,55.6,48.2,43.1,51.0,46.0,42.0,97,92,83,30.09,29.95,1,0,3,0.00
2013-10-25,68.9,51.0,38.9,55.0,45.7,38.0,97,84,57,30.14,30.06,1,0,2,0.00
2013-10-26,75.0,54.8,41.8,51.0,45.2,40.0,95,74,37,30.12,29.99,1,0,1,0.00
2013-10-27,56.1,48.9,40.7,51.0,43.1,-99.9,93,84,71,30.01,29.73,4,0,11,0.00
2013-10-28,56.3,51.2,48.2,48.0,46.1,43.0,95,83,62,29.85,29.68,4,0,10,0.00
2013-10-29,56.1,49.0,41.7,50.0,45.9,40.0,96,89,78,30.03,29.85,4,0,6,0.00
2013-10-30,61.2,47.8,37.3,48.0,42.1,36.0,97,82,59,30.12,30.04,1,0,3,0.00
2013-10-31,66.0,51.5,39.7,49.0,42.5,38.0,95,74,42,30.16,30.05,2,0,4,0.00
2013-11-1,71.3,52.4,40.5,46.0,40.4,37.0,91,68,31,30.11,30.00,1,0,4,0.00
2013-11-2,69.4,52.5,39.8,51.0,42.5,35.0,87,71,43,30.01,29.90,2,0,5,0.00
2013-11-3,59.8,51.3,42.5,45.0,34.1,25.0,91,56,27,30.00,29.89,6,1,13,0.00
2013-11-4,61.3,47.5,36.4,36.0,32.0,28.0,87,59,29,30.03,29.89,4,0,10,0.00
2013-11-5,66.6,55.7,44.4,36.0,32.0,28.0,67,43,26,30.20,30.03,4,1,11,0.00
2013-11-6,70.7,53.7,41.8,40.0,36.4,33.0,76,56,25,30.22,30.14,1,0,3,0.00
2013-11-7,69.2,53.1,43.4,44.0,37.4,33.0,73,58,28,30.14,30.05,1,0,2,0.00
2013-11-8,70.7,54.7,42.5,48.0,43.4,38.0,88,69,38,30.06,29.93,2,0,4,0.00
2013-11-9,64.7,50.8,42.5,49.0,43.7,38.0,92,79,39,30.05,29.95,1,0,5,0.00
2013-11-10,60.2,49.6,40.4,50.0,45.8,39.0,95,87,67,30.11,30.02,2,0,2,0.00
2013-11-11,65.4,51.2,39.1,49.0,44.0,38.0,96,79,45,30.15,30.06,1,0,1,0.00
2013-11-12,69.6,56.6,48.5,49.0,46.0,43.0,82,69,45,30.23,30.13,1,0,3,0.00
2013-11-13,74.4,56.9,45.9,47.0,43.9,35.0,87,66,27,30.22,30.08,6,0,9,0.00
2013-11-14,65.9,52.3,42.7,53.0,45.7,40.0,91,79,59,30.08,29.88,1,0,3,0.00
2013-11-15,59.2,46.6,38.1,45.0,39.8,36.0,95,79,43,29.88,29.71,4,0,6,0.00
2013-11-16,56.4,35.7,36.3,47.0,8.9,-99.9,93,64,66,29.94,29.78,1,-229,6,0.00
2013-11-17,55.8,33.9,40.0,49.0,1.3,-99.9,95,61,77,30.09,29.93,1,-302,2,0.00
2013-11-18,56.7,34.1,38.6,48.0,1.1,-99.9,95,59,67,30.13,30.07,2,-298,3,0.00
2013-11-19,58.2,40.2,41.5,52.0,15.7,-99.9,96,70,77,30.11,29.96,1,-223,2,0.30
2013-11-20,55.7,27.2,52.4,55.0,-23.1,-99.9,100,48,96,29.96,29.83,0,-500,2,0.35
2013-11-21,53.8,33.3,44.2,48.0,-7.7,-99.9,97,45,41,29.93,29.86,10,-332,12,0.00
2013-11-22,60.2,30.5,37.3,40.0,-18.4,-99.9,83,34,23,29.99,29.89,6,-374,9,0.00
2013-11-23,57.4,33.1,36.4,48.0,-1.5,-99.9,94,56,53,30.10,29.95,1,-305,4,0.02
2013-11-24,57.5,43.5,34.5,46.0,39.2,33.0,97,86,57,30.25,30.10,2,0,3,0.00
2013-11-25,60.8,45.4,36.1,47.0,40.1,35.0,97,83,52,30.30,30.23,2,0,2,0.00
2013-11-26,63.0,47.7,39.0,49.0,42.5,38.0,94,83,52,30.24,30.01,1,0,1,0.00
2013-11-27,60.2,47.6,39.2,46.0,42.2,38.0,96,83,53,30.01,29.83,2,0,3,0.00
2013-11-28,61.2,47.8,40.9,46.0,42.2,39.0,95,82,49,30.07,29.85,1,0,2,0.00
2013-11-29,64.2,47.5,38.8,47.0,40.8,37.0,96,80,44,30.21,30.07,1,0,2,0.00
2013-11-30,63.9,46.9,36.8,47.0,39.4,35.0,94,78,40,30.25,30.17,4,0,4,0.00
2013-12-1,67.7,50.4,40.6,47.0,41.7,39.0,94,75,36,30.31,30.19,4,0,8,0.00
2013-12-2,63.1,49.0,39.6,48.0,43.4,38.0,95,83,53,30.22,29.97,5,0,7,0.00
2013-12-3,49.7,45.3,33.9,48.0,38.1,29.0,96,77,57,29.97,29.82,5,1,9,0.00
2013-12-4,45.5,35.2,27.9,32.0,26.3,20.0,87,72,38,30.07,29.91,2,0,7,0.00
2013-12-5,45.2,32.6,24.8,31.0,24.4,19.0,88,74,35,30.18,30.07,3,0,5,0.00
2013-12-6,47.2,36.7,25.9,45.0,31.8,22.0,96,83,59,30.20,29.95,2,0,4,0.47
2013-12-7,46.8,38.1,28.6,46.0,33.7,27.0,97,85,56,30.22,29.92,5,1,14,0.28
2013-12-8,40.9,32.0,27.3,31.0,26.2,23.0,95,81,52,30.29,30.19,3,0,6,0.00
2013-12-9,44.7,33.1,25.6,31.0,23.8,17.0,87,71,41,30.39,30.29,3,0,6,0.00
2013-12-10,50.6,35.2,25.9,35.0,27.9,23.0,92,77,42,30.39,30.18,1,0,3,0.00
2013-12-11,55.7,40.5,31.5,37.0,31.2,27.0,87,72,38,30.20,30.14,1,0,3,0.00
2013-12-12,56.0,38.6,29.5,36.0,29.9,26.0,90,74,33,30.25,30.16,1,0,1,0.00
2013-12-13,57.7,40.1,29.7,38.0,31.4,28.0,95,75,36,30.32,30.22,3,0,8,0.00
2013-12-14,58.6,43.4,33.8,42.0,35.6,31.0,91,76,45,30.35,30.27,3,0,4,0.00
2013-12-15,61.8,44.3,33.8,43.0,36.6,32.0,92,76,43,30.33,30.20,1,0,1,0.00
2013-12-16,65.4,47.9,38.6,44.0,37.3,33.0,84,69,33,30.20,30.09,1,0,1,0.00
2013-12-17,66.3,49.8,40.4,47.0,40.0,33.0,82,70,42,30.14,30.00,0,0,0,0.00
2013-12-18,57.5,48.8,44.1,48.0,43.3,39.0,91,82,60,30.00,29.77,3,0,6,0.00
2013-12-19,53.0,45.0,36.0,43.0,36.5,32.0,92,73,47,29.91,29.70,6,1,17,0.00
2013-12-20,54.6,41.5,31.3,31.0,22.1,4.0,84,52,13,30.00,29.90,3,0,13,0.00
2013-12-21,62.5,45.6,34.0,47.0,36.9,25.0,92,73,50,30.06,29.95,3,0,8,0.00
2013-12-22,62.9,47.1,37.8,43.0,38.1,36.0,93,74,38,30.28,30.07,3,0,8,0.00
2013-12-23,61.1,45.0,35.7,45.0,38.9,34.0,95,81,48,30.36,30.28,1,0,3,0.00
2013-12-24,65.6,50.2,39.7,42.0,39.0,34.0,89,68,40,30.31,30.18,5,0,7,0.00
2013-12-25,64.7,47.8,38.9,44.0,38.0,34.0,85,71,39,30.24,30.16,1,0,1,0.00
2013-12-26,67.1,47.1,37.3,44.0,37.7,34.0,89,73,33,30.22,30.13,0,0,1,0.00
2013-12-27,63.7,47.4,36.9,46.0,38.2,32.0,83,72,42,30.20,30.09,0,0,1,0.00
2013-12-28,61.1,46.7,36.8,36.0,31.2,28.0,80,59,28,30.10,30.00,6,1,13,0.00
2013-12-29,62.9,49.6,38.4,35.0,28.4,18.0,71,47,23,30.16,30.05,4,0,10,0.00
2013-12-30,58.6,43.5,34.4,36.0,31.3,29.0,81,65,34,30.24,30.16,1,0,2,0.00
2013-12-31,61.3,42.9,32.4,40.0,32.0,26.0,82,68,34,30.25,30.12,1,0,1,0.00
2014-1-1,63.7,46.2,34.4,38.0,32.7,30.0,84,63,30,30.19,30.09,2,0,3,0.00
2014-1-2,66.2,48.5,38.6,43.0,36.6,32.0,80,65,37,30.13,30.03,1,0,2,0.00